Voltar ao catálogo

ONEWEB-0566

AtivoComunicaçõesPO
NORAD 56061·PAYLOAD·🇬🇧 United Kingdom

Lançado Mar 26, 2023 de Satish Dhawan Space Centre

Loading…

Próximas Passagens (próximas 24 horas)

TLE

AtualizadoSource: CelesTrak SupGP

Época: Sep 14, 2026, 18:20 UTC

1 56061C 23043R   26257.76439074  .00003396  00000+0  82330-2 0  2577
2 56061  87.9282 226.1417 0002054  73.8797   7.2180 13.21823896    13

Acompanhe ONEWEB-0566 em tempo real com AllMySat

Download on the App Store